Sioux Falls, SD

4:06 AM CDT on October 21, 2019 (GMT -0500)
Foss

Weather History for KFSD - August, 2019

Change the Weather History Date:

Thursday, August 29, 2019

  Actual Average Record
Temperature  
Mean Temperature 66 °F 68 °F  
Max Temperature 78 °F 80 °F 100 °F (2012)
Min Temperature 55 °F 57 °F 34 °F (1893)
Degree Days  
Heating Degree Days 0 2  
Month to date heating degree days 0 17  
Since 1 June heating degree days 20 76  
Since 1 July heating degree days 0 25  
Cooling Degree Days 2 5  
Month to date cooling degree days 178 190  
Year to date cooling degree days 706 617  
Since 1 June cooling degree days 691 581  
Growing Degree Days 16 (Base 50)    
Moisture  
Dew Point 54 °F    
Average Humidity 62    
Maximum Humidity 87    
Minimum Humidity 33    
Precipitation  
Precipitation 0.00 in 0.10 in 2.91 in (1942)
Month to date precipitation 2.47 2.84  
Year to date precipitation 29.66 19.18  
Snow  
Snow 0.00 in 0.00 in 0.00 in ()
Month to date snowfall T 0.0  
Since 1 June snowfall T 0.0  
Since 1 July snowfall T 0.0  
Snow Depth 0.00 in    
Sea Level Pressure  
Sea Level Pressure 29.94 in    
Wind  
Wind Speed 8 mph ()    
Max Wind Speed 22 mph    
Max Gust Speed 33 mph    
Visibility 10.0 miles    
Events      
T = Trace of Precipitation, MM = Missing Value Source: Averaged Metar Reports

Daily Weather History Graph

Daily Weather History Graph

Search for Another Location

Airport or City:

Astronomy

Aug. 29, 2019 Rise Set
Actual Time 6:47 AM CDT 8:07 PM CDT
Civil Twilight 6:17 AM CDT 8:37 PM CDT
Nautical Twilight 5:41 AM CDT 9:13 PM CDT
Astronomical Twilight 5:03 AM CDT 9:51 PM CDT
Moon 5:29 AM CDT (8/29) 8:07 PM CDT (8/29)
Length of Visible Light 14h 20m
Length of Day
13h 20m
Waning Crescent, 1% of the Moon is Illuminated
Aug 29
Waning Crescent
Aug 30
New
Sep 5
First Quarter
Sep 13
Full
Sep 21
Last Quarter

Hourly Weather History & Observations

Time (CDT) Temp. Dew Point Humidity Pressure Visibility Wind Dir Wind Speed Gust Speed Precip Events Conditions
12:56 AM 57.9 °F 53.1 °F 84% 29.88 in 10.0 mi Calm Calm - N/A   Clear
1:56 AM 61.0 °F 54.0 °F 78% 29.87 in 10.0 mi Calm Calm - N/A   Clear
2:56 AM 64.0 °F 57.0 °F 78% 29.83 in 10.0 mi South 5.8 mph - N/A   Clear
3:56 AM 66.0 °F 60.1 °F 81% 29.82 in 10.0 mi SSW 6.9 mph - N/A   Clear
4:56 AM 66.9 °F 61.0 °F 81% 29.80 in 10.0 mi SSW 9.2 mph - N/A   Scattered Clouds
5:56 AM 66.9 °F 61.0 °F 81% 29.80 in 10.0 mi SSW 6.9 mph - N/A   Scattered Clouds
6:56 AM 66.0 °F 61.0 °F 84% 29.82 in 10.0 mi WSW 3.5 mph - N/A   Partly Cloudy
7:56 AM 66.9 °F 62.1 °F 84% 29.84 in 10.0 mi West 6.9 mph - N/A   Partly Cloudy
8:56 AM 69.1 °F 60.1 °F 73% 29.88 in 10.0 mi NNW 17.3 mph 26.5 mph N/A   Partly Cloudy
9:56 AM 72.0 °F 54.0 °F 53% 29.92 in 10.0 mi North 19.6 mph 29.9 mph N/A   Scattered Clouds
10:56 AM 75.0 °F 52.0 °F 44% 29.94 in 10.0 mi NNW 21.9 mph 29.9 mph N/A   Partly Cloudy
11:56 AM 75.9 °F 48.9 °F 38% 29.96 in 10.0 mi NNW 19.6 mph 27.6 mph N/A   Partly Cloudy
12:56 PM 77.0 °F 46.9 °F 34% 29.96 in 10.0 mi North 16.1 mph - N/A   Partly Cloudy
1:56 PM 77.0 °F 46.0 °F 33% 29.96 in 10.0 mi NNW 19.6 mph 26.5 mph N/A   Scattered Clouds
2:56 PM 77.0 °F 48.9 °F 37% 29.97 in 10.0 mi NNW 13.8 mph - N/A   Partly Cloudy
3:56 PM 75.9 °F 48.9 °F 38% 29.98 in 10.0 mi North 16.1 mph - N/A   Partly Cloudy
4:56 PM 75.9 °F 51.1 °F 42% 29.99 in 10.0 mi NNW 12.7 mph - N/A   Partly Cloudy
5:56 PM 75.0 °F 48.9 °F 40% 30.00 in 10.0 mi North 10.4 mph - N/A   Partly Cloudy
6:56 PM 72.0 °F 51.1 °F 48% 30.01 in 10.0 mi North 9.2 mph - N/A   Partly Cloudy
7:56 PM 66.9 °F 53.1 °F 61% 30.04 in 10.0 mi North 3.5 mph - N/A   Partly Cloudy
8:56 PM 63.0 °F 53.1 °F 70% 30.07 in 10.0 mi NW 5.8 mph - N/A   Clear
9:56 PM 61.0 °F 53.1 °F 75% 30.10 in 10.0 mi NW 6.9 mph - N/A   Clear
11:56 PM 57.0 °F 51.1 °F 81% 30.07 in 10.0 mi NNE 6.9 mph - N/A   Clear